Powrót do katalogu

ION SCV-008

AktywnyNaukaSSO
NORAD 55051·PAYLOAD·🇮🇹 Italy

Wystrzelony Jan 3, 2023 z Cape Canaveral Space Force Station

Loading…

Następne Przeloty (najbliższe 24 godziny)

TLE

ŚwieżeSource: Space-Track

Epoka: Sep 13, 2026, 20:18 UTC

1 55051U 23001AU  26256.84648471  .00005351  00000-0  18915-3 0  9996
2 55051  97.5720 354.7087 0015775  62.7898 297.4947 15.29513982204886

Śledź ION SCV-008 w czasie rzeczywistym z AllMySat

Download on the App Store